User: anonymous   Login
Location: Caltech
(34.1382°N, 118.1253°W)
Time: 22:44:44
(UTC-07:00)
Language:

Oscar 11 - Orbit

View from above orbital plane
View from above orbital plane
View from above satellite
View from above satellite

Ground track
Ground track

The orbit data is extracted from the following two-line orbital elements,

1 14781U 84021B   15247.68002995  .00000303  00000-0  44170-4 0  9990
2 14781  97.7937 302.7740 0008991 162.4214 197.7313 14.82493991693802
Epoch (UTC): 04 September 2015 16:19:14
Eccentricity: 0.0008991
inclination: 97.7937°
perigee height: 615 km
apogee height: 628 km
right ascension of ascending node: 302.7740°
argument of perigee: 162.4214°
revolutions per day: 14.82493991
mean anomaly at epoch: 197.7313°
orbit number at epoch: 69380

The dashed part of the orbit path shows where the satellite is in the earth's shadow,  

DLR